TimeEDT,TemperatureF,Dew PointF,Humidity,Sea Level PressureIn,VisibilityMPH,Wind Direction,Wind SpeedMPH,Gust SpeedMPH,PrecipitationIn,Events,Conditions,WindDirDegrees,DateUTC
12:56 AM,41.0,33.1,73,29.74,-9999.0,NNW,20.7,32.2,N/A,,Unknown,340,2012-11-01 04:56:00
1:56 AM,39.9,32.0,73,29.74,-9999.0,NNW,23.0,33.4,N/A,,Unknown,340,2012-11-01 05:56:00
2:56 AM,39.9,32.0,73,29.74,-9999.0,NNW,19.6,32.2,N/A,,Unknown,340,2012-11-01 06:56:00
3:56 AM,41.0,33.1,73,29.73,-9999.0,NNW,19.6,27.6,N/A,,Unknown,340,2012-11-01 07:56:00
4:56 AM,41.0,32.0,70,29.73,-9999.0,NNW,20.7,29.9,N/A,,Unknown,340,2012-11-01 08:56:00
5:56 AM,41.0,32.0,70,29.73,-9999.0,NNW,19.6,27.6,N/A,,Unknown,340,2012-11-01 09:56:00
6:56 AM,41.0,30.9,67,29.73,-9999.0,NNW,19.6,32.2,N/A,,Unknown,340,2012-11-01 10:56:00
7:56 AM,39.9,30.0,68,29.73,-9999.0,North,19.6,28.8,N/A,,Unknown,350,2012-11-01 11:56:00
8:56 AM,39.9,30.0,68,29.74,-9999.0,NNW,20.7,26.5,N/A,,Unknown,340,2012-11-01 12:56:00
9:56 AM,41.0,30.0,65,29.75,-9999.0,North,20.7,32.2,N/A,,Unknown,360,2012-11-01 13:56:00
10:56 AM,41.0,28.9,62,29.76,-9999.0,North,20.7,32.2,N/A,,Unknown,360,2012-11-01 14:56:00
11:56 AM,41.0,28.9,62,29.78,-9999.0,NNW,20.7,39.1,N/A,,Unknown,340,2012-11-01 15:56:00
12:56 PM,41.0,28.9,62,29.77,-9999.0,North,23.0,33.4,N/A,,Unknown,350,2012-11-01 16:56:00
1:56 PM,39.9,30.0,68,29.77,-9999.0,NNW,24.2,34.5,N/A,,Unknown,340,2012-11-01 17:56:00
2:56 PM,39.9,32.0,73,29.77,-9999.0,NNW,26.5,39.1,N/A,,Unknown,340,2012-11-01 18:56:00
3:56 PM,39.9,30.0,68,29.78,-9999.0,NNW,20.7,35.7,N/A,,Unknown,340,2012-11-01 19:56:00
4:56 PM,41.0,30.9,67,29.78,-9999.0,North,23.0,31.1,N/A,,Unknown,350,2012-11-01 20:56:00
5:56 PM,41.0,28.9,62,29.80,-9999.0,North,24.2,34.5,N/A,,Unknown,350,2012-11-01 21:56:00
6:56 PM,41.0,28.0,60,29.81,-9999.0,NNW,21.9,35.7,N/A,,Unknown,340,2012-11-01 22:56:00
7:56 PM,41.0,28.0,60,29.83,-9999.0,North,25.3,40.3,N/A,,Unknown,350,2012-11-01 23:56:00
8:56 PM,39.9,30.9,70,29.84,-9999.0,NNW,24.2,33.4,N/A,,Unknown,340,2012-11-02 00:56:00
9:56 PM,39.9,30.9,70,29.85,-9999.0,North,25.3,35.7,N/A,,Unknown,350,2012-11-02 01:56:00
10:56 PM,39.9,30.0,68,29.86,-9999.0,North,24.2,31.1,N/A,,Unknown,350,2012-11-02 02:56:00
11:56 PM,39.0,30.0,70,29.88,-9999.0,North,23.0,34.5,N/A,,Unknown,360,2012-11-02 03:56:00